| time (UTC) | temp F | wind direction | speed MPH | gust MPH | rain 1hr in | rain 24hr in | rain mn in | humidity % | barometer mb |
| 20260506111003 | 52 | 301 | 2.0 | 8.0 | 0.00 | 0.00 | 0.00 | 34 | 1012.1 |
| 20260506110003 | 52 | 343 | 3.0 | 6.0 | 0.00 | 0.00 | 0.00 | 34 | 1012.1 |
| 20260506105003 | 50 | 23 | 1.0 | 7.0 | 0.00 | 0.00 | 0.00 | 37 | 1012.1 |
| 20260506104003 | 51 | 257 | 4.0 | 7.0 | 0.00 | 0.00 | 0.00 | 35 | 1012.2 |
| 20260506103003 | 52 | 332 | 1.0 | 6.0 | 0.00 | 0.00 | 0.00 | 33 | 1012.3 |
| 20260506102003 | 50 | 59 | 2.0 | 11.0 | 0.00 | 0.00 | 0.00 | 35 | 1012.4 |
| 20260506101003 | 51 | 283 | 3.0 | 9.0 | 0.00 | 0.00 | 0.00 | 34 | 1012.2 |
| 20260506100003 | 50 | 273 | 2.0 | 4.0 | 0.00 | 0.00 | 0.00 | 33 | 1012.4 |
| 20260506095003 | 50 | 321 | 2.0 | 6.0 | 0.00 | 0.00 | 0.00 | 32 | 1012.8 |
| 20260506094003 | 49 | 20 | 1.0 | 6.0 | 0.00 | 0.00 | 0.00 | 37 | 1012.5 |
| 20260506093003 | 49 | 28 | 2.0 | 8.0 | 0.00 | 0.00 | 0.00 | 38 | 1012.6 |
| 20260506092003 | 49 | 353 | 2.0 | 6.0 | 0.00 | 0.00 | 0.00 | 38 | 1012.5 |
| 20260506091003 | 49 | 305 | 2.0 | 9.0 | 0.00 | 0.00 | 0.00 | 37 | 1012.8 |
| 20260506090003 | 48 | 286 | 3.0 | 7.0 | 0.00 | 0.00 | 0.00 | 40 | 1012.6 |
| 20260506085004 | 48 | 1 | 2.0 | 6.0 | 0.00 | 0.00 | 0.00 | 41 | 1012.8 |
| 20260506084003 | 47 | 228 | 2.0 | 7.0 | 0.00 | 0.00 | 0.00 | 42 | 1012.8 |
| 20260506083003 | 47 | 0 | 0.0 | 6.0 | 0.00 | 0.00 | 0.00 | 45 | 1012.8 |
| 20260506082003 | 47 | 221 | 2.0 | 4.0 | 0.00 | 0.00 | 0.00 | 42 | 1012.7 |
| 20260506081003 | 47 | 204 | 1.0 | 6.0 | 0.00 | 0.00 | 0.00 | 45 | 1013.0 |
| 20260506073004 | 45 | 236 | 2.0 | 4.0 | 0.00 | 0.00 | 0.00 | 48 | 1012.8 |
| 20260506072003 | 45 | 210 | 1.0 | 4.0 | 0.00 | 0.00 | 0.00 | 48 | 1012.8 |
| 20260506071003 | 44 | 224 | 1.0 | 4.0 | 0.00 | 0.00 | 0.00 | 51 | 1013.0 |
| 20260506062003 | 41 | 0 | 0.0 | 4.0 | 0.00 | 0.00 | 0.00 | 60 | 1013.1 |
| 20260506061003 | 38 | 225 | 1.0 | 2.0 | 0.00 | 0.00 | 0.00 | 62 | 1013.1 |
| 20260506051004 | 32 | 0 | 0.0 | 2.0 | 0.00 | 0.00 | 0.00 | 71 | 1012.8 |
| 20260506045003 | 32 | 0 | 0.0 | 2.0 | 0.00 | 0.00 | 0.00 | 71 | 1012.6 |
| 20260506044003 | 31 | 0 | 0.0 | 2.0 | 0.00 | 0.00 | 0.00 | 72 | 1012.8 |
| 20260506043003 | 31 | 0 | 0.0 | 2.0 | 0.00 | 0.00 | 0.00 | 73 | 1012.9 |
| 20260506042003 | 30 | 94 | 1.0 | 2.0 | 0.00 | 0.00 | 0.00 | 75 | 1012.8 |
| 20260506041003 | 29 | 0 | 0.0 | 0.0 | 0.00 | 0.00 | 0.00 | 77 | 1013.0 |
| 20260506040003 | 27 | 0 | 0.0 | 0.0 | 0.00 | 0.00 | 0.00 | 81 | 1012.6 |
| 20260506035003 | 26 | 0 | 0.0 | 2.0 | 0.00 | 0.00 | 0.00 | 81 | 1012.6 |
| 20260506034003 | 26 | 0 | 0.0 | 0.0 | 0.00 | 0.00 | 0.00 | 83 | 1012.5 |
| 20260506033004 | 26 | 0 | 0.0 | 0.0 | 0.00 | 0.00 | 0.00 | 83 | 1012.4 |
| 20260506032003 | 26 | 0 | 0.0 | 0.0 | 0.00 | 0.00 | 0.00 | 82 | 1012.5 |
| 20260506031003 | 26 | 0 | 0.0 | 0.0 | 0.00 | 0.00 | 0.00 | 82 | 1012.6 |
| 20260506030003 | 27 | 0 | 0.0 | 0.0 | 0.00 | 0.00 | 0.00 | 80 | 1012.4 |
| 20260506025003 | 27 | 0 | 0.0 | 2.0 | 0.00 | 0.00 | 0.00 | 79 | 1012.4 |
| 20260506024003 | 27 | 0 | 0.0 | 0.0 | 0.00 | 0.00 | 0.00 | 80 | 1012.5 |
| 20260506023003 | 27 | 0 | 0.0 | 0.0 | 0.00 | 0.00 | 0.00 | 80 | 1012.5 |
| 20260506022003 | 27 | 0 | 0.0 | 0.0 | 0.00 | 0.00 | 0.00 | 80 | 1012.6 |
| 20260506021003 | 26 | 0 | 0.0 | 0.0 | 0.00 | 0.00 | 0.00 | 80 | 1012.5 |
| 20260506020003 | 27 | 0 | 0.0 | 2.0 | 0.00 | 0.00 | 0.00 | 80 | 1012.3 |
| 20260506015003 | 27 | 0 | 0.0 | 2.0 | 0.00 | 0.00 | 0.00 | 79 | 1012.4 |
| 20260506014003 | 27 | 0 | 0.0 | 2.0 | 0.00 | 0.00 | 0.00 | 78 | 1012.2 |
| 20260506013003 | 27 | 90 | 1.0 | 2.0 | 0.00 | 0.00 | 0.00 | 79 | 1012.4 |
| 20260506012003 | 27 | 0 | 0.0 | 0.0 | 0.00 | 0.00 | 0.00 | 79 | 1012.2 |
| 20260506011003 | 27 | 0 | 0.0 | 0.0 | 0.00 | 0.00 | 0.00 | 79 | 1012.1 |
| 20260506010003 | 27 | 0 | 0.0 | 0.0 | 0.00 | 0.00 | 0.00 | 77 | 1012.1 |
| 20260506005003 | 28 | 0 | 0.0 | 0.0 | 0.00 | 0.00 | 0.00 | 76 | 1011.7 |
| 20260506004003 | 29 | 0 | 0.0 | 0.0 | 0.00 | 0.00 | 0.00 | 76 | 1012.1 |
| 20260506003003 | 28 | 0 | 0.0 | 2.0 | 0.00 | 0.00 | 0.00 | 75 | 1012.1 |
| 20260506002003 | 29 | 0 | 0.0 | 0.0 | 0.00 | 0.00 | 0.00 | 75 | 1011.8 |
| 20260506001003 | 29 | 0 | 0.0 | 0.0 | 0.00 | 0.00 | 0.00 | 76 | 1011.9 |
| 20260506000004 | 29 | 0 | 0.0 | 0.0 | 0.00 | 0.00 | 0.00 | 74 | 1012.0 |
| 20260505235003 | 29 | 0 | 0.0 | 0.0 | 0.00 | 0.00 | 0.00 | 74 | 1011.9 |
| 20260505234003 | 30 | 0 | 0.0 | 0.0 | 0.00 | 0.00 | 0.00 | 72 | 1011.9 |
| 20260505233003 | 30 | 0 | 0.0 | 0.0 | 0.00 | 0.00 | 0.00 | 70 | 1012.1 |
| 20260505232003 | 30 | 0 | 0.0 | 0.0 | 0.00 | 0.00 | 0.00 | 70 | 1012.0 |
| 20260505231003 | 30 | 0 | 0.0 | 0.0 | 0.00 | 0.00 | 0.00 | 70 | 1011.9 |
| 20260505230003 | 31 | 0 | 0.0 | 0.0 | 0.00 | 0.00 | 0.00 | 69 | 1011.9 |
| 20260505225003 | 31 | 0 | 0.0 | 0.0 | 0.00 | 0.00 | 0.00 | 68 | 1011.6 |
| 20260505224003 | 31 | 0 | 0.0 | 2.0 | 0.00 | 0.00 | 0.00 | 68 | 1011.8 |
| 20260505223003 | 32 | 0 | 0.0 | 0.0 | 0.00 | 0.00 | 0.00 | 65 | 1011.8 |
| 20260505222003 | 33 | 0 | 0.0 | 0.0 | 0.00 | 0.00 | 0.00 | 63 | 1011.8 |
| 20260505221003 | 34 | 0 | 0.0 | 0.0 | 0.00 | 0.00 | 0.00 | 60 | 1011.6 |
| 20260505220021 | 34 | 0 | 0.0 | 0.0 | 0.00 | 0.00 | 0.00 | 57 | 1011.9 |
| 20260505215003 | 34 | 0 | 0.0 | 0.0 | 0.00 | 0.00 | 0.00 | 59 | 1011.9 |
| 20260505214003 | 35 | 0 | 0.0 | 0.0 | 0.00 | 0.00 | 0.00 | 56 | 1011.8 |
| 20260505213003 | 35 | 0 | 0.0 | 0.0 | 0.00 | 0.00 | 0.00 | 55 | 1011.7 |
| 20260505212003 | 34 | 0 | 0.0 | 0.0 | 0.00 | 0.00 | 0.00 | 57 | 1011.2 |
| 20260505211003 | 34 | 0 | 0.0 | 0.0 | 0.00 | 0.00 | 0.00 | 58 | 1011.5 |
| 20260505210003 | 35 | 0 | 0.0 | 0.0 | 0.00 | 0.00 | 0.00 | 56 | 1011.5 |
| 20260505205003 | 36 | 0 | 0.0 | 2.0 | 0.00 | 0.00 | 0.00 | 54 | 1011.3 |
| 20260505204003 | 36 | 90 | 1.0 | 2.0 | 0.00 | 0.00 | 0.00 | 52 | 1011.1 |
| 20260505203003 | 36 | 0 | 0.0 | 2.0 | 0.00 | 0.00 | 0.00 | 54 | 1010.8 |
| 20260505202003 | 36 | 0 | 0.0 | 0.0 | 0.00 | 0.00 | 0.00 | 55 | 1010.9 |
| 20260505201003 | 37 | 0 | 0.0 | 2.0 | 0.00 | 0.00 | 0.00 | 52 | 1011.0 |
| 20260505200004 | 38 | 0 | 0.0 | 4.0 | 0.00 | 0.00 | 0.00 | 47 | 1010.9 |
| 20260505195003 | 38 | 0 | 0.0 | 2.0 | 0.00 | 0.00 | 0.00 | 52 | 1010.6 |
| 20260505194003 | 39 | 0 | 0.0 | 2.0 | 0.00 | 0.00 | 0.00 | 48 | 1010.6 |
| 20260505193003 | 40 | 0 | 0.0 | 2.0 | 0.00 | 0.00 | 0.00 | 47 | 1010.8 |
| 20260505192003 | 41 | 78 | 1.0 | 4.0 | 0.00 | 0.00 | 0.00 | 44 | 1010.7 |
| 20260505191003 | 42 | 0 | 0.0 | 2.0 | 0.00 | 0.00 | 0.00 | 43 | 1010.4 |
| 20260505190003 | 44 | 0 | 0.0 | 4.0 | 0.00 | 0.02 | 0.00 | 40 | 1010.3 |
| 20260505185003 | 46 | 58 | 1.0 | 4.0 | 0.00 | 0.02 | 0.00 | 37 | 1010.3 |
| 20260505184003 | 46 | 53 | 2.0 | 6.0 | 0.00 | 0.02 | 0.00 | 36 | 1010.4 |
| 20260505183003 | 47 | 67 | 1.0 | 7.0 | 0.00 | 0.02 | 0.00 | 35 | 1010.2 |
| 20260505182003 | 47 | 47 | 4.0 | 8.0 | 0.00 | 0.02 | 0.00 | 34 | 1010.0 |
| 20260505181003 | 47 | 56 | 2.0 | 7.0 | 0.00 | 0.02 | 0.00 | 34 | 1010.1 |
| 20260505180003 | 48 | 43 | 2.0 | 7.0 | 0.00 | 0.02 | 0.00 | 33 | 1010.1 |
| 20260505175003 | 48 | 50 | 4.0 | 9.0 | 0.00 | 0.02 | 0.00 | 32 | 1010.0 |
| 20260505174003 | 48 | 34 | 4.0 | 11.0 | 0.00 | 0.02 | 0.00 | 32 | 1010.0 |
| 20260505173003 | 49 | 34 | 4.0 | 8.0 | 0.00 | 0.02 | 0.00 | 31 | 1010.0 |
| 20260505172004 | 49 | 47 | 2.0 | 8.0 | 0.00 | 0.02 | 0.00 | 31 | 1009.8 |
| 20260505171003 | 49 | 59 | 4.0 | 8.0 | 0.00 | 0.02 | 0.00 | 31 | 1009.9 |
| 20260505170004 | 49 | 58 | 4.0 | 8.0 | 0.00 | 0.02 | 0.00 | 33 | 1009.8 |
| 20260505165003 | 49 | 57 | 4.0 | 8.0 | 0.00 | 0.02 | 0.00 | 33 | 1010.1 |
| 20260505164003 | 47 | 63 | 4.0 | 8.0 | 0.00 | 0.02 | 0.00 | 33 | 1010.1 |
| 20260505163003 | 46 | 61 | 2.0 | 8.0 | 0.00 | 0.02 | 0.00 | 36 | 1009.9 |
| 20260505162003 | 46 | 70 | 4.0 | 13.0 | 0.00 | 0.02 | 0.00 | 36 | 1009.9 |
| 20260505161003 | 46 | 72 | 5.0 | 14.0 | 0.00 | 0.02 | 0.00 | 36 | 1010.1 |
| 20260505153003 | 51 | 29 | 6.0 | 14.0 | 0.00 | 0.02 | 0.00 | 26 | 1009.7 |
| 20260505152003 | 49 | 34 | 4.0 | 14.0 | 0.00 | 0.02 | 0.00 | 29 | 1009.7 |
| 20260505151003 | 50 | 19 | 7.0 | 15.0 | 0.00 | 0.02 | 0.00 | 26 | 1009.5 |
| 20260505125003 | 49 | 64 | 5.0 | 11.0 | 0.00 | 0.02 | 0.00 | 32 | 1009.6 |
| 20260505124003 | 48 | 68 | 5.0 | 9.0 | 0.00 | 0.02 | 0.00 | 31 | 1009.4 |
| 20260505123003 | 47 | 54 | 3.0 | 15.0 | 0.00 | 0.02 | 0.00 | 31 | 1009.4 |
| 20260505122003 | 48 | 49 | 2.0 | 8.0 | 0.00 | 0.02 | 0.00 | 29 | 1009.2 |
| 20260505121003 | 50 | 349 | 4.0 | 9.0 | 0.00 | 0.02 | 0.00 | 32 | 1009.4 |
| 20260505120004 | 51 | 5 | 3.0 | 9.0 | 0.00 | 0.02 | 0.00 | 34 | 1009.3 |
| 20260505115003 | 50 | 2 | 4.0 | 8.0 | 0.00 | 0.02 | 0.00 | 32 | 1009.6 |
| 20260505114003 | 51 | 353 | 3.0 | 7.0 | 0.00 | 0.02 | 0.00 | 32 | 1009.3 |
| 20260505113003 | 49 | 66 | 2.0 | 9.0 | 0.00 | 0.02 | 0.00 | 35 | 1009.3 |
| 20260505112003 | 48 | 66 | 4.0 | 8.0 | 0.00 | 0.02 | 0.00 | 38 | 1009.2 |